Year,Month,Day,Hour,Minute,Value (Times are PST for temperature in C)
2017,08,02,00,00,18.80
2017,08,02,00,01,18.80
2017,08,02,00,02,18.80
2017,08,02,00,03,18.80
2017,08,02,00,04,18.70
2017,08,02,00,05,18.70
2017,08,02,00,06,18.70
2017,08,02,00,07,18.70
2017,08,02,00,08,18.70
2017,08,02,00,09,18.70
2017,08,02,00,10,18.70
2017,08,02,00,11,18.70
2017,08,02,00,12,18.70
2017,08,02,00,13,18.70
2017,08,02,00,14,18.70
2017,08,02,00,15,18.60
2017,08,02,00,16,18.60
2017,08,02,00,17,18.60
2017,08,02,00,18,18.60
2017,08,02,00,19,18.60
2017,08,02,00,20,18.60
2017,08,02,00,21,18.60
2017,08,02,00,22,18.70
2017,08,02,00,23,18.70
2017,08,02,00,24,18.70
2017,08,02,00,25,18.70
2017,08,02,00,26,18.70
2017,08,02,00,27,18.70
2017,08,02,00,28,18.80
2017,08,02,00,29,18.80
2017,08,02,00,30,18.80
2017,08,02,00,31,18.80
2017,08,02,00,32,18.80
2017,08,02,00,33,18.80
2017,08,02,00,34,18.80
2017,08,02,00,35,18.80
2017,08,02,00,36,18.80
2017,08,02,00,37,18.80
2017,08,02,00,38,18.80
2017,08,02,00,39,18.80
2017,08,02,00,40,18.80
2017,08,02,00,41,18.80
2017,08,02,00,42,18.70
2017,08,02,00,43,18.70
2017,08,02,00,44,18.70
2017,08,02,00,45,18.70
2017,08,02,00,46,18.70
2017,08,02,00,47,18.70
2017,08,02,00,48,18.60
2017,08,02,00,49,18.70
2017,08,02,00,50,18.60
2017,08,02,00,51,18.60
2017,08,02,00,52,18.60
2017,08,02,00,53,18.60
2017,08,02,00,54,18.60
2017,08,02,00,55,18.60
2017,08,02,00,56,18.50
2017,08,02,00,57,18.50
2017,08,02,00,58,18.50
2017,08,02,00,59,18.40
2017,08,02,01,00,18.40
2017,08,02,01,01,18.40
2017,08,02,01,02,18.40
2017,08,02,01,03,18.30
2017,08,02,01,04,18.30
2017,08,02,01,05,18.30
2017,08,02,01,06,18.30
2017,08,02,01,07,18.30
2017,08,02,01,08,18.30
2017,08,02,01,09,18.20
2017,08,02,01,10,18.20
2017,08,02,01,11,18.20
2017,08,02,01,12,18.20
2017,08,02,01,13,18.20
2017,08,02,01,14,18.20
2017,08,02,01,15,18.10
2017,08,02,01,16,18.20
2017,08,02,01,17,18.20
2017,08,02,01,18,18.20
2017,08,02,01,19,18.20
2017,08,02,01,20,18.20
2017,08,02,01,21,18.20
2017,08,02,01,22,18.20
2017,08,02,01,23,18.20
2017,08,02,01,24,18.20
2017,08,02,01,25,18.10
2017,08,02,01,26,18.10
2017,08,02,01,27,18.10
2017,08,02,01,28,18.10
2017,08,02,01,29,18.10
2017,08,02,01,30,18.10
2017,08,02,01,31,18.10
2017,08,02,01,32,18.10
2017,08,02,01,33,18.10
2017,08,02,01,34,18.10
2017,08,02,01,35,18.10
2017,08,02,01,36,18.10
2017,08,02,01,37,18.10
2017,08,02,01,38,18.10
2017,08,02,01,39,18.10
2017,08,02,01,40,18.10
2017,08,02,01,41,18.10
2017,08,02,01,42,18.10
2017,08,02,01,43,18.00
2017,08,02,01,44,18.00
2017,08,02,01,45,18.00
2017,08,02,01,46,17.90
2017,08,02,01,47,17.90
2017,08,02,01,48,17.90
2017,08,02,01,49,17.90
2017,08,02,01,50,17.80
2017,08,02,01,51,17.80
2017,08,02,01,52,17.80
2017,08,02,01,53,17.80
2017,08,02,01,54,17.80
2017,08,02,01,55,17.80
2017,08,02,01,56,17.80
2017,08,02,01,57,17.80
2017,08,02,01,58,17.80
2017,08,02,01,59,17.80
2017,08,02,02,00,17.80
2017,08,02,02,01,17.80
2017,08,02,02,02,17.80
2017,08,02,02,03,17.70
2017,08,02,02,04,17.70
2017,08,02,02,05,17.70
2017,08,02,02,06,17.70
2017,08,02,02,07,17.70
2017,08,02,02,08,17.70
2017,08,02,02,09,17.60
2017,08,02,02,10,17.60
2017,08,02,02,11,17.60
2017,08,02,02,12,17.60
2017,08,02,02,13,17.60
2017,08,02,02,14,17.60
2017,08,02,02,15,17.60
2017,08,02,02,16,17.60
2017,08,02,02,17,17.60
2017,08,02,02,18,17.60
2017,08,02,02,19,17.60
2017,08,02,02,20,17.60
2017,08,02,02,21,17.60
2017,08,02,02,22,17.60
2017,08,02,02,23,17.50
2017,08,02,02,24,17.50
2017,08,02,02,25,17.50
2017,08,02,02,26,17.40
2017,08,02,02,27,17.40
2017,08,02,02,28,17.40
2017,08,02,02,29,17.30
2017,08,02,02,30,17.30
2017,08,02,02,31,17.30
2017,08,02,02,32,17.30
2017,08,02,02,33,17.30
2017,08,02,02,34,17.30
2017,08,02,02,35,17.30
2017,08,02,02,36,17.30
2017,08,02,02,37,17.20
2017,08,02,02,38,17.20
2017,08,02,02,39,17.20
2017,08,02,02,40,17.20
2017,08,02,02,41,17.20
2017,08,02,02,42,17.20
2017,08,02,02,43,17.20
2017,08,02,02,44,17.20
2017,08,02,02,45,17.20
2017,08,02,02,46,17.20
2017,08,02,02,47,17.20
2017,08,02,02,48,17.20
2017,08,02,02,49,17.20
2017,08,02,02,50,17.20
2017,08,02,02,51,17.20
2017,08,02,02,52,17.20
2017,08,02,02,53,17.20
2017,08,02,02,54,17.20
2017,08,02,02,55,17.20
2017,08,02,02,56,17.20
2017,08,02,02,57,17.20
2017,08,02,02,58,17.10
2017,08,02,02,59,17.20
2017,08,02,03,00,17.20
2017,08,02,03,01,17.10
2017,08,02,03,02,17.10
2017,08,02,03,03,17.10
2017,08,02,03,04,17.10
2017,08,02,03,05,17.10
2017,08,02,03,06,17.10
2017,08,02,03,07,17.10
2017,08,02,03,08,17.10
2017,08,02,03,09,17.10
2017,08,02,03,10,17.10
2017,08,02,03,11,17.10
2017,08,02,03,12,17.10
2017,08,02,03,13,17.10
2017,08,02,03,14,17.10
2017,08,02,03,15,17.10
2017,08,02,03,16,17.10
2017,08,02,03,17,17.10
2017,08,02,03,18,17.00
2017,08,02,03,19,17.00
2017,08,02,03,20,17.00
2017,08,02,03,21,17.00
2017,08,02,03,22,17.00
2017,08,02,03,23,17.00
2017,08,02,03,24,16.90
2017,08,02,03,25,16.90
2017,08,02,03,26,16.90
2017,08,02,03,27,16.90
2017,08,02,03,28,16.90
2017,08,02,03,29,16.90
2017,08,02,03,30,16.90
2017,08,02,03,31,16.90
2017,08,02,03,32,16.80
2017,08,02,03,33,16.80
2017,08,02,03,34,16.80
2017,08,02,03,35,16.80
2017,08,02,03,36,16.80
2017,08,02,03,37,16.80
2017,08,02,03,38,16.80
2017,08,02,03,39,16.80
2017,08,02,03,40,16.80
2017,08,02,03,41,16.80
2017,08,02,03,42,16.80
2017,08,02,03,43,16.80
2017,08,02,03,44,16.80
2017,08,02,03,45,16.80
2017,08,02,03,46,16.80
2017,08,02,03,47,16.80
2017,08,02,03,48,16.80
2017,08,02,03,49,16.80
2017,08,02,03,50,16.80
2017,08,02,03,51,16.80
2017,08,02,03,52,16.80
2017,08,02,03,53,16.80
2017,08,02,03,54,16.80
2017,08,02,03,55,16.80
2017,08,02,03,56,16.70
2017,08,02,03,57,16.70
2017,08,02,03,58,16.70
2017,08,02,03,59,16.70
2017,08,02,04,00,16.70
2017,08,02,04,01,16.70
2017,08,02,04,02,16.70
2017,08,02,04,03,16.70
2017,08,02,04,04,16.70
2017,08,02,04,05,16.70
2017,08,02,04,06,16.70
2017,08,02,04,07,16.70
2017,08,02,04,08,16.70
2017,08,02,04,09,16.70
2017,08,02,04,10,16.70
2017,08,02,04,11,16.70
2017,08,02,04,12,16.70
2017,08,02,04,13,16.70
2017,08,02,04,14,16.70
2017,08,02,04,15,16.70
2017,08,02,04,16,16.70
2017,08,02,04,17,16.70
2017,08,02,04,18,16.70
2017,08,02,04,19,16.70
2017,08,02,04,20,16.70
2017,08,02,04,21,16.70
2017,08,02,04,22,16.70
2017,08,02,04,23,16.70
2017,08,02,04,24,16.70
2017,08,02,04,25,16.70
2017,08,02,04,26,16.60
2017,08,02,04,27,16.60
2017,08,02,04,28,16.60
2017,08,02,04,29,16.60
2017,08,02,04,30,16.60
2017,08,02,04,31,16.60
2017,08,02,04,32,16.60
2017,08,02,04,33,16.60
2017,08,02,04,34,16.60
2017,08,02,04,35,16.60
2017,08,02,04,36,16.60
2017,08,02,04,37,16.60
2017,08,02,04,38,16.50
2017,08,02,04,39,16.50
2017,08,02,04,40,16.50
2017,08,02,04,41,16.50
2017,08,02,04,42,16.50
2017,08,02,04,43,16.50
2017,08,02,04,44,16.50
2017,08,02,04,45,16.50
2017,08,02,04,46,16.50
2017,08,02,04,47,16.60
2017,08,02,04,48,16.60
2017,08,02,04,49,16.60
2017,08,02,04,50,16.60
2017,08,02,04,51,16.60
2017,08,02,04,52,16.60
2017,08,02,04,53,16.60
2017,08,02,04,54,16.60
2017,08,02,04,55,16.60
2017,08,02,04,56,16.60
2017,08,02,04,57,16.60
2017,08,02,04,58,16.60
2017,08,02,04,59,16.60
2017,08,02,05,00,16.60
2017,08,02,05,01,16.60
2017,08,02,05,02,16.60
2017,08,02,05,03,16.50
2017,08,02,05,04,16.50
2017,08,02,05,05,16.50
2017,08,02,05,06,16.50
2017,08,02,05,07,16.50
2017,08,02,05,08,16.40
2017,08,02,05,09,16.40
2017,08,02,05,10,16.40
2017,08,02,05,11,16.40
2017,08,02,05,12,16.40
2017,08,02,05,13,16.40
2017,08,02,05,14,16.40
2017,08,02,05,15,16.40
2017,08,02,05,16,16.40
2017,08,02,05,17,16.40
2017,08,02,05,18,16.40
2017,08,02,05,19,16.40
2017,08,02,05,20,16.40
2017,08,02,05,21,16.40
2017,08,02,05,22,16.40
2017,08,02,05,23,16.40
2017,08,02,05,24,16.40
2017,08,02,05,25,16.40
2017,08,02,05,26,16.40
2017,08,02,05,27,16.40
2017,08,02,05,28,16.40
2017,08,02,05,29,16.40
2017,08,02,05,30,16.40
2017,08,02,05,31,16.40
2017,08,02,05,32,16.40
2017,08,02,05,33,16.40
2017,08,02,05,34,16.40
2017,08,02,05,35,16.40
2017,08,02,05,36,16.40
2017,08,02,05,37,16.40
2017,08,02,05,38,16.40
2017,08,02,05,39,16.40
2017,08,02,05,40,16.40
2017,08,02,05,41,16.40
2017,08,02,05,42,16.40
2017,08,02,05,43,16.40
2017,08,02,05,44,16.40
2017,08,02,05,45,16.50
2017,08,02,05,46,16.50
2017,08,02,05,47,16.50
2017,08,02,05,48,16.50
2017,08,02,05,49,16.50
2017,08,02,05,50,16.50
2017,08,02,05,51,16.50
2017,08,02,05,52,16.50
2017,08,02,05,53,16.50
2017,08,02,05,54,16.50
2017,08,02,05,55,16.40
2017,08,02,05,56,16.40
2017,08,02,05,57,16.40
2017,08,02,05,58,16.40
2017,08,02,05,59,16.40
2017,08,02,06,00,16.40
2017,08,02,06,01,16.30
2017,08,02,06,02,16.30
2017,08,02,06,03,16.30
2017,08,02,06,04,16.30
2017,08,02,06,05,16.30
2017,08,02,06,06,16.20
2017,08,02,06,07,16.20
2017,08,02,06,08,16.20
2017,08,02,06,09,16.20
2017,08,02,06,10,16.20
2017,08,02,06,11,16.10
2017,08,02,06,12,16.10
2017,08,02,06,13,16.10
2017,08,02,06,14,16.10
2017,08,02,06,15,16.10
2017,08,02,06,16,16.10
2017,08,02,06,17,16.10
2017,08,02,06,18,16.10
2017,08,02,06,19,16.10
2017,08,02,06,20,16.10
2017,08,02,06,21,16.10
2017,08,02,06,22,16.10
2017,08,02,06,23,16.10
2017,08,02,06,24,16.10
2017,08,02,06,25,16.10
2017,08,02,06,26,16.10
2017,08,02,06,27,16.10
2017,08,02,06,28,16.20
2017,08,02,06,29,16.20
2017,08,02,06,30,16.20
2017,08,02,06,31,16.20
2017,08,02,06,32,16.20
2017,08,02,06,33,16.20
2017,08,02,06,34,16.20
2017,08,02,06,35,16.20
2017,08,02,06,36,16.30
2017,08,02,06,37,16.30
2017,08,02,06,38,16.30
2017,08,02,06,39,16.30
2017,08,02,06,40,16.30
2017,08,02,06,41,16.30
2017,08,02,06,42,16.30
2017,08,02,06,43,16.30
2017,08,02,06,44,16.30
2017,08,02,06,45,16.30
2017,08,02,06,46,16.30
2017,08,02,06,47,16.30
2017,08,02,06,48,16.30
2017,08,02,06,49,16.30
2017,08,02,06,50,16.30
2017,08,02,06,51,16.30
2017,08,02,06,52,16.30
2017,08,02,06,53,16.30
2017,08,02,06,54,16.30
2017,08,02,06,55,16.30
2017,08,02,06,56,16.30
2017,08,02,06,57,16.40
2017,08,02,06,58,16.40
2017,08,02,06,59,16.40
2017,08,02,07,00,16.40
2017,08,02,07,01,16.40
2017,08,02,07,02,16.40
2017,08,02,07,03,16.40
2017,08,02,07,04,16.50
2017,08,02,07,05,16.50
2017,08,02,07,06,16.50
2017,08,02,07,07,16.50
2017,08,02,07,08,16.50
2017,08,02,07,09,16.50
2017,08,02,07,10,16.50
2017,08,02,07,11,16.50
2017,08,02,07,12,16.50
2017,08,02,07,13,16.50
2017,08,02,07,14,16.50
2017,08,02,07,15,16.60
2017,08,02,07,16,16.60
2017,08,02,07,17,16.60
2017,08,02,07,18,16.60
2017,08,02,07,19,16.60
2017,08,02,07,20,16.70
2017,08,02,07,21,16.70
2017,08,02,07,22,16.70
2017,08,02,07,23,16.70
2017,08,02,07,24,16.80
2017,08,02,07,25,16.80
2017,08,02,07,26,16.80
2017,08,02,07,27,16.80
2017,08,02,07,28,16.80
2017,08,02,07,29,16.90
2017,08,02,07,30,16.90
2017,08,02,07,31,16.90
2017,08,02,07,32,17.00
2017,08,02,07,33,17.00
2017,08,02,07,34,17.10
2017,08,02,07,35,17.10
2017,08,02,07,36,17.10
2017,08,02,07,37,17.20
2017,08,02,07,38,17.20
2017,08,02,07,39,17.20
2017,08,02,07,40,17.20
2017,08,02,07,41,17.30
2017,08,02,07,42,17.30
2017,08,02,07,43,17.30
2017,08,02,07,44,17.30
2017,08,02,07,45,17.40
2017,08,02,07,46,17.40
2017,08,02,07,47,17.40
2017,08,02,07,48,17.50
2017,08,02,07,49,17.50
2017,08,02,07,50,17.50
2017,08,02,07,51,17.50
2017,08,02,07,52,17.60
2017,08,02,07,53,17.60
2017,08,02,07,54,17.60
2017,08,02,07,55,17.60
2017,08,02,07,56,17.70
2017,08,02,07,57,17.70
2017,08,02,07,58,17.70
2017,08,02,07,59,17.70
2017,08,02,08,00,17.70
2017,08,02,08,01,17.80
2017,08,02,08,02,17.80
2017,08,02,08,03,17.80
2017,08,02,08,04,17.80
2017,08,02,08,05,17.90
2017,08,02,08,06,17.90
2017,08,02,08,07,17.90
2017,08,02,08,08,18.00
2017,08,02,08,09,18.00
2017,08,02,08,10,18.00
2017,08,02,08,11,18.00
2017,08,02,08,12,18.10
2017,08,02,08,13,18.10
2017,08,02,08,14,18.10
2017,08,02,08,15,18.20
2017,08,02,08,16,18.20
2017,08,02,08,17,18.20
2017,08,02,08,18,18.20
2017,08,02,08,19,18.30
2017,08,02,08,20,18.30
2017,08,02,08,21,18.30
2017,08,02,08,22,18.40
2017,08,02,08,23,18.40
2017,08,02,08,24,18.50
2017,08,02,08,25,18.50
2017,08,02,08,26,18.50
2017,08,02,08,27,18.60
2017,08,02,08,28,18.60
2017,08,02,08,29,18.70
2017,08,02,08,30,18.70
2017,08,02,08,31,18.70
2017,08,02,08,32,18.70
2017,08,02,08,33,18.80
2017,08,02,08,34,18.80
2017,08,02,08,35,18.90
2017,08,02,08,36,18.90
2017,08,02,08,37,18.90
2017,08,02,08,38,19.00
2017,08,02,08,39,19.00
2017,08,02,08,40,19.10
2017,08,02,08,41,19.10
2017,08,02,08,42,19.10
2017,08,02,08,43,19.20
2017,08,02,08,44,19.20
2017,08,02,08,45,19.20
2017,08,02,08,46,19.30
2017,08,02,08,47,19.30
2017,08,02,08,48,19.40
2017,08,02,08,49,19.40
2017,08,02,08,50,19.50
2017,08,02,08,51,19.50
2017,08,02,08,52,19.60
2017,08,02,08,53,19.60
2017,08,02,08,54,19.70
2017,08,02,08,55,19.70
2017,08,02,08,56,19.80
2017,08,02,08,57,19.80
2017,08,02,08,58,19.90
2017,08,02,08,59,19.90
2017,08,02,09,00,20.00
2017,08,02,09,01,20.00
2017,08,02,09,02,20.00
2017,08,02,09,03,20.10
2017,08,02,09,04,20.10
2017,08,02,09,05,20.10
2017,08,02,09,06,20.10
2017,08,02,09,07,20.20
2017,08,02,09,08,20.20
2017,08,02,09,09,20.30
2017,08,02,09,10,20.30
2017,08,02,09,11,20.30
2017,08,02,09,12,20.40
2017,08,02,09,13,20.40
2017,08,02,09,14,20.40
2017,08,02,09,15,20.50
2017,08,02,09,16,20.50
2017,08,02,09,17,20.60
2017,08,02,09,18,20.60
2017,08,02,09,19,20.60
2017,08,02,09,20,20.70
2017,08,02,09,21,20.70
2017,08,02,09,22,20.80
2017,08,02,09,23,20.80
2017,08,02,09,24,20.80
2017,08,02,09,25,20.90
2017,08,02,09,26,20.90
2017,08,02,09,27,20.90
2017,08,02,09,28,21.00
2017,08,02,09,29,21.00
2017,08,02,09,30,21.10
2017,08,02,09,31,21.10
2017,08,02,09,32,21.20
2017,08,02,09,33,21.20
2017,08,02,09,34,21.30
2017,08,02,09,35,21.30
2017,08,02,09,36,21.40
2017,08,02,09,37,21.40
2017,08,02,09,38,21.50
2017,08,02,09,39,21.50
2017,08,02,09,40,21.60
2017,08,02,09,41,21.60
2017,08,02,09,42,21.60
2017,08,02,09,43,21.70
2017,08,02,09,44,21.70
2017,08,02,09,45,21.70
2017,08,02,09,46,21.80
2017,08,02,09,47,21.80
2017,08,02,09,48,21.80
2017,08,02,09,49,21.90
2017,08,02,09,50,21.90
2017,08,02,09,51,21.90
2017,08,02,09,52,22.00
2017,08,02,09,53,22.00
2017,08,02,09,54,22.10
2017,08,02,09,55,22.10
2017,08,02,09,56,22.10
2017,08,02,09,57,22.20
2017,08,02,09,58,22.20
2017,08,02,09,59,22.30
2017,08,02,10,00,22.30
2017,08,02,10,01,22.30
2017,08,02,10,02,22.30
2017,08,02,10,03,22.40
2017,08,02,10,04,22.40
2017,08,02,10,05,22.40
2017,08,02,10,06,22.40
2017,08,02,10,07,22.50
2017,08,02,10,08,22.50
2017,08,02,10,09,22.60
2017,08,02,10,10,22.60
2017,08,02,10,11,22.70
2017,08,02,10,12,22.70
2017,08,02,10,13,22.80
2017,08,02,10,14,22.80
2017,08,02,10,15,22.90
2017,08,02,10,16,22.90
2017,08,02,10,17,22.90
2017,08,02,10,18,22.90
2017,08,02,10,19,23.00
2017,08,02,10,20,23.00
2017,08,02,10,21,23.00
2017,08,02,10,22,23.00
2017,08,02,10,23,23.00
2017,08,02,10,24,23.00
2017,08,02,10,25,23.00
2017,08,02,10,26,23.00
2017,08,02,10,27,23.00
2017,08,02,10,28,23.00
2017,08,02,10,29,23.10
2017,08,02,10,30,23.10
2017,08,02,10,31,23.10
2017,08,02,10,32,23.10
2017,08,02,10,33,23.20
2017,08,02,10,34,23.20
2017,08,02,10,35,23.20
2017,08,02,10,36,23.20
2017,08,02,10,37,23.20
2017,08,02,10,38,23.20
2017,08,02,10,39,23.20
2017,08,02,10,40,23.20
2017,08,02,10,41,23.20
2017,08,02,10,42,23.10
2017,08,02,10,43,23.10
2017,08,02,10,44,23.10
2017,08,02,10,45,23.10
2017,08,02,10,46,23.10
2017,08,02,10,47,23.10
2017,08,02,10,48,23.10
2017,08,02,10,49,23.10
2017,08,02,10,50,23.10
2017,08,02,10,51,23.10
2017,08,02,10,52,23.20
2017,08,02,10,53,23.20
2017,08,02,10,54,23.10
2017,08,02,10,55,23.10
2017,08,02,10,56,23.00
2017,08,02,10,57,23.00
2017,08,02,10,58,22.90
2017,08,02,10,59,22.90
2017,08,02,11,00,22.90
2017,08,02,11,01,22.90
2017,08,02,11,02,22.80
2017,08,02,11,03,22.80
2017,08,02,11,04,22.80
2017,08,02,11,05,22.80
2017,08,02,11,06,22.80
2017,08,02,11,07,22.80
2017,08,02,11,08,22.80
2017,08,02,11,09,22.80
2017,08,02,11,10,22.80
2017,08,02,11,11,22.70
2017,08,02,11,12,22.70
2017,08,02,11,13,22.70
2017,08,02,11,14,22.70
2017,08,02,11,15,22.70
2017,08,02,11,16,22.70
2017,08,02,11,17,22.60
2017,08,02,11,18,22.60
2017,08,02,11,19,22.60
2017,08,02,11,20,22.60
2017,08,02,11,21,22.60
2017,08,02,11,22,22.50
2017,08,02,11,23,22.50
2017,08,02,11,24,22.50
2017,08,02,11,25,22.40
2017,08,02,11,26,22.30
2017,08,02,11,27,22.20
2017,08,02,11,28,22.10
2017,08,02,11,29,22.00
2017,08,02,11,30,21.90
2017,08,02,11,31,21.80
2017,08,02,11,32,21.80
2017,08,02,11,33,21.70
2017,08,02,11,34,21.60
2017,08,02,11,35,21.50
2017,08,02,11,36,21.40
2017,08,02,11,37,21.40
2017,08,02,11,38,21.30
2017,08,02,11,39,21.20
2017,08,02,11,40,21.20
2017,08,02,11,41,21.10
2017,08,02,11,42,21.10
2017,08,02,11,43,21.00
2017,08,02,11,44,20.90
2017,08,02,11,45,20.90
2017,08,02,11,46,20.90
2017,08,02,11,47,20.80
2017,08,02,11,48,20.80
2017,08,02,11,49,20.80
2017,08,02,11,50,20.80
2017,08,02,11,51,20.80
2017,08,02,11,52,20.90
2017,08,02,11,53,20.90
2017,08,02,11,54,20.90
2017,08,02,11,55,20.90
2017,08,02,11,56,20.90
2017,08,02,11,57,21.00
2017,08,02,11,58,21.00
2017,08,02,11,59,21.10
2017,08,02,12,00,21.10
2017,08,02,12,01,21.20
2017,08,02,12,02,21.20
2017,08,02,12,03,21.20
2017,08,02,12,04,21.30
2017,08,02,12,05,21.30
2017,08,02,12,06,21.40
2017,08,02,12,07,21.40
2017,08,02,12,08,21.50
2017,08,02,12,09,21.50
2017,08,02,12,10,21.60
2017,08,02,12,11,21.60
2017,08,02,12,12,21.60
2017,08,02,12,13,21.60
2017,08,02,12,14,21.60
2017,08,02,12,15,21.70
2017,08,02,12,16,21.70
2017,08,02,12,17,21.80
2017,08,02,12,18,21.80
2017,08,02,12,19,21.80
2017,08,02,12,20,21.80
2017,08,02,12,21,21.80
2017,08,02,12,22,21.80
2017,08,02,12,23,21.80
2017,08,02,12,24,21.80
2017,08,02,12,25,21.80
2017,08,02,12,26,21.80
2017,08,02,12,27,21.80
2017,08,02,12,28,21.90
2017,08,02,12,29,21.90
2017,08,02,12,30,21.90
2017,08,02,12,31,22.00
2017,08,02,12,32,22.00
2017,08,02,12,33,22.10
2017,08,02,12,34,22.10
2017,08,02,12,35,22.20
2017,08,02,12,36,22.20
2017,08,02,12,37,22.30
2017,08,02,12,38,22.30
2017,08,02,12,39,22.40
2017,08,02,12,40,22.50
2017,08,02,12,41,22.60
2017,08,02,12,42,22.60
2017,08,02,12,43,22.70
2017,08,02,12,44,22.80
2017,08,02,12,45,22.80
2017,08,02,12,46,22.80
2017,08,02,12,47,22.90
2017,08,02,12,48,22.90
2017,08,02,12,49,22.90
2017,08,02,12,50,23.00
2017,08,02,12,51,23.00
2017,08,02,12,52,23.10
2017,08,02,12,53,23.10
2017,08,02,12,54,23.20
2017,08,02,12,55,23.20
2017,08,02,12,56,23.30
2017,08,02,12,57,23.30
2017,08,02,12,58,23.40
2017,08,02,12,59,23.40
2017,08,02,13,00,23.50
2017,08,02,13,01,23.50
2017,08,02,13,02,23.60
2017,08,02,13,03,23.60
2017,08,02,13,04,23.60
2017,08,02,13,05,23.60
2017,08,02,13,06,23.60
2017,08,02,13,07,23.70
2017,08,02,13,08,23.80
2017,08,02,13,09,23.90
2017,08,02,13,10,24.00
2017,08,02,13,11,24.00
2017,08,02,13,12,24.10
2017,08,02,13,13,24.10
2017,08,02,13,14,24.10
2017,08,02,13,15,24.10
2017,08,02,13,16,24.10
2017,08,02,13,17,24.10
2017,08,02,13,18,24.10
2017,08,02,13,19,24.10
2017,08,02,13,20,24.10
2017,08,02,13,21,24.10
2017,08,02,13,22,24.10
2017,08,02,13,23,24.10
2017,08,02,13,24,24.10
2017,08,02,13,25,24.10
2017,08,02,13,26,24.20
2017,08,02,13,27,24.20
2017,08,02,13,28,24.20
2017,08,02,13,29,24.20
2017,08,02,13,30,24.30
2017,08,02,13,31,24.30
2017,08,02,13,32,24.40
2017,08,02,13,33,24.40
2017,08,02,13,34,24.50
2017,08,02,13,35,24.50
2017,08,02,13,36,24.60
2017,08,02,13,37,24.60
2017,08,02,13,38,24.60
2017,08,02,13,39,24.60
2017,08,02,13,40,24.70
2017,08,02,13,41,24.70
2017,08,02,13,42,24.70
2017,08,02,13,43,24.70
2017,08,02,13,44,24.70
2017,08,02,13,45,24.70
2017,08,02,13,46,24.70
2017,08,02,13,47,24.70
2017,08,02,13,48,24.70
2017,08,02,13,49,24.70
2017,08,02,13,50,24.70
2017,08,02,13,51,24.60
2017,08,02,13,52,24.60
2017,08,02,13,53,24.60
2017,08,02,13,54,24.50
2017,08,02,13,55,24.50
2017,08,02,13,56,24.50
2017,08,02,13,57,24.50
2017,08,02,13,58,24.50
2017,08,02,13,59,24.50
2017,08,02,14,00,24.40
2017,08,02,14,01,24.40
2017,08,02,14,02,24.40
2017,08,02,14,03,24.50
2017,08,02,14,04,24.50
2017,08,02,14,05,24.50
2017,08,02,14,06,24.50
2017,08,02,14,07,24.60
2017,08,02,14,08,24.60
2017,08,02,14,09,24.60
2017,08,02,14,10,24.60
2017,08,02,14,11,24.50
2017,08,02,14,12,24.50
2017,08,02,14,13,24.50
2017,08,02,14,14,24.50
2017,08,02,14,15,24.50
2017,08,02,14,16,24.50
2017,08,02,14,17,24.40
2017,08,02,14,18,24.40
2017,08,02,14,19,24.40
2017,08,02,14,20,24.40
2017,08,02,14,21,24.30
2017,08,02,14,22,24.30
2017,08,02,14,23,24.30
2017,08,02,14,24,24.30
2017,08,02,14,25,24.30
2017,08,02,14,26,24.30
2017,08,02,14,27,24.30
2017,08,02,14,28,24.40
2017,08,02,14,29,24.40
2017,08,02,14,30,24.40
2017,08,02,14,31,24.50
2017,08,02,14,32,24.50
2017,08,02,14,33,24.60
2017,08,02,14,34,24.60
2017,08,02,14,35,24.70
2017,08,02,14,36,24.70
2017,08,02,14,37,24.70
2017,08,02,14,38,24.80
2017,08,02,14,39,24.80
2017,08,02,14,40,24.80
2017,08,02,14,41,24.90
2017,08,02,14,42,24.90
2017,08,02,14,43,24.90
2017,08,02,14,44,25.00
2017,08,02,14,45,25.00
2017,08,02,14,46,25.10
2017,08,02,14,47,25.10
2017,08,02,14,48,25.20
2017,08,02,14,49,25.20
2017,08,02,14,50,25.20
2017,08,02,14,51,25.30
2017,08,02,14,52,25.30
2017,08,02,14,53,25.30
2017,08,02,14,54,25.40
2017,08,02,14,55,25.40
2017,08,02,14,56,25.40
2017,08,02,14,57,25.50
2017,08,02,14,58,25.50
2017,08,02,14,59,25.60
2017,08,02,15,00,25.60
2017,08,02,15,01,25.70
2017,08,02,15,02,25.70
2017,08,02,15,03,25.70
2017,08,02,15,04,25.80
2017,08,02,15,05,25.80
2017,08,02,15,06,25.90
2017,08,02,15,07,25.90
2017,08,02,15,08,25.90
2017,08,02,15,09,26.00
2017,08,02,15,10,26.00
2017,08,02,15,11,26.10
2017,08,02,15,12,26.10
2017,08,02,15,13,26.10
2017,08,02,15,14,26.10
2017,08,02,15,15,26.20
2017,08,02,15,16,26.20
2017,08,02,15,17,26.20
2017,08,02,15,18,26.20
2017,08,02,15,19,26.30
2017,08,02,15,20,26.30
2017,08,02,15,21,26.30
2017,08,02,15,22,26.40
2017,08,02,15,23,26.40
2017,08,02,15,24,26.50
2017,08,02,15,25,26.50
2017,08,02,15,26,26.60
2017,08,02,15,27,26.60
2017,08,02,15,28,26.60
2017,08,02,15,29,26.70
2017,08,02,15,30,26.70
2017,08,02,15,31,26.70
2017,08,02,15,32,26.80
2017,08,02,15,33,26.80
2017,08,02,15,34,26.80
2017,08,02,15,35,26.70
2017,08,02,15,36,26.70
2017,08,02,15,37,26.70
2017,08,02,15,38,26.70
2017,08,02,15,39,26.60
2017,08,02,15,40,26.60
2017,08,02,15,41,26.60
2017,08,02,15,42,26.60
2017,08,02,15,43,26.60
2017,08,02,15,44,26.60
2017,08,02,15,45,26.60
2017,08,02,15,46,26.60
2017,08,02,15,47,26.70
2017,08,02,15,48,26.70
2017,08,02,15,49,26.70
2017,08,02,15,50,26.70
2017,08,02,15,51,26.60
2017,08,02,15,52,26.60
2017,08,02,15,53,26.60
2017,08,02,15,54,26.60
2017,08,02,15,55,26.60
2017,08,02,15,56,26.60
2017,08,02,15,57,26.60
2017,08,02,15,58,26.70
2017,08,02,15,59,26.70
2017,08,02,16,00,26.70
2017,08,02,16,01,26.70
2017,08,02,16,02,26.80
2017,08,02,16,03,26.80
2017,08,02,16,04,26.80
2017,08,02,16,05,26.80
2017,08,02,16,06,26.90
2017,08,02,16,07,26.90
2017,08,02,16,08,26.90
2017,08,02,16,09,26.90
2017,08,02,16,10,26.90
2017,08,02,16,11,27.00
2017,08,02,16,12,27.10
2017,08,02,16,13,27.10
2017,08,02,16,14,27.20
2017,08,02,16,15,27.20
2017,08,02,16,16,27.20
2017,08,02,16,17,27.30
2017,08,02,16,18,27.30
2017,08,02,16,19,27.30
2017,08,02,16,20,27.30
2017,08,02,16,21,27.30
2017,08,02,16,22,27.40
2017,08,02,16,23,27.40
2017,08,02,16,24,27.40
2017,08,02,16,25,27.40
2017,08,02,16,26,27.40
2017,08,02,16,27,27.40
2017,08,02,16,28,27.40
2017,08,02,16,29,27.40
2017,08,02,16,30,27.40
2017,08,02,16,31,27.40
2017,08,02,16,32,27.40
2017,08,02,16,33,27.40
2017,08,02,16,34,27.40
2017,08,02,16,35,27.30
2017,08,02,16,36,27.30
2017,08,02,16,37,27.30
2017,08,02,16,38,27.30
2017,08,02,16,39,27.20
2017,08,02,16,40,27.20
2017,08,02,16,41,27.20
2017,08,02,16,42,27.20
2017,08,02,16,43,27.10
2017,08,02,16,44,27.10
2017,08,02,16,45,27.10
2017,08,02,16,46,27.20
2017,08,02,16,47,27.20
2017,08,02,16,48,27.20
2017,08,02,16,49,27.20
2017,08,02,16,50,27.20
2017,08,02,16,51,27.20
2017,08,02,16,52,27.20
2017,08,02,16,53,27.20
2017,08,02,16,54,27.20
2017,08,02,16,55,27.20
2017,08,02,16,56,27.20
2017,08,02,16,57,27.20
2017,08,02,16,58,27.20
2017,08,02,16,59,27.20
2017,08,02,17,00,27.20
2017,08,02,17,01,27.10
2017,08,02,17,02,27.20
2017,08,02,17,03,27.20
2017,08,02,17,04,27.20
2017,08,02,17,05,27.20
2017,08,02,17,06,27.20
2017,08,02,17,07,27.30
2017,08,02,17,08,27.30
2017,08,02,17,09,27.30
2017,08,02,17,10,27.40
2017,08,02,17,11,27.40
2017,08,02,17,12,27.40
2017,08,02,17,13,27.40
2017,08,02,17,14,27.50
2017,08,02,17,15,27.50
2017,08,02,17,16,27.60
2017,08,02,17,17,27.60
2017,08,02,17,18,27.60
2017,08,02,17,19,27.60